When you browse on this site, cookies collect data to enhance your experience and personalize the content and advertising you see.
Visit our Privacy Policy to learn more. By continuing to use the site, you agree to this use of cookies and data.
  • In Romania
  • List of Countries
  • For 7 days
  • Water Temperature
  • Satellite Maps
  • Weather Map
  • Weather Widgets
  • user-avatar
    Login

    Hourly Weather Wroniec

    Today, 17 December, Monday

    Time Temperature Precipitation Wind Pressure Humidity
    00:00 -4°C° 0 mm 1 mps 743 mmHg 89%
    01:00 -4°C° 0 mm 1 mps 743 mmHg 89%
    02:00 -4°C° 0 mm 1 mps 743 mmHg 89%
    03:00 -4°C° 0 mm 1 mps 742 mmHg 89%
    04:00 -4°C° 0 mm 1 mps 742 mmHg 88%
    05:00 -4°C° 0 mm 1 mps 743 mmHg 87%
    06:00 -4°C° 0 mm 1 mps 743 mmHg 86%
    07:00 -4°C° 0 mm 1 mps 743 mmHg 85%
    08:00 -3°C° 0 mm 1 mps 743 mmHg 83%
    09:00 -2°C° 0 mm 1 mps 744 mmHg 80%
    10:00 -2°C° 0 mm 1 mps 744 mmHg 78%
    11:00 -1°C° 0 mm 1 mps 744 mmHg 77%
    12:00 0°C° 0 mm 1 mps 744 mmHg 76%
    13:00 +1°C° 0 mm 1 mps 744 mmHg 75%
    14:00 0°C° 0 mm 1 mps 745 mmHg 79%
    15:00 -1°C° 0 mm 1 mps 745 mmHg 82%
    16:00 -2°C° 0 mm 1 mps 745 mmHg 86%
    17:00 -2°C° 0 mm 1 mps 746 mmHg 87%
    18:00 -2°C° 0 mm 1 mps 746 mmHg 88%
    19:00 -3°C° 0 mm 1 mps 746 mmHg 88%
    20:00 -3°C° 0 mm 1 mps 747 mmHg 89%
    21:00 -4°C° 0 mm 2 mps 747 mmHg 89%
    22:00 -4°C° 0 mm 2 mps 748 mmHg 90%
    23:00 -4°C° 0 mm 2 mps 748 mmHg 90%

    Tomorrow, 18 December, Tuesday

    Time Temperature Precipitation Wind Pressure Humidity
    00:00 -4°C° 0 mm 2 mps 748 mmHg 91%
    01:00 -1°C° 0 mm 1 mps 748 mmHg 91%
    02:00 -1°C° 0 mm 1 mps 748 mmHg 91%
    03:00 -1°C° 0 mm 1 mps 748 mmHg 92%
    04:00 -1°C° 0 mm 1 mps 748 mmHg 92%
    05:00 -1°C° 0 mm 1 mps 749 mmHg 92%
    06:00 -1°C° 0 mm 1 mps 749 mmHg 92%
    07:00 -2°C° 0 mm 0 mps 749 mmHg 92%
    08:00 -1°C° 0 mm 0 mps 749 mmHg 91%
    09:00 -1°C° 0 mm 0 mps 749 mmHg 90%
    10:00 +1°C° 0 mm 1 mps 749 mmHg 89%
    11:00 +1°C° 0 mm 0 mps 749 mmHg 89%
    12:00 +1°C° 0 mm 0 mps 749 mmHg 89%
    13:00 +1°C° 0 mm 0 mps 749 mmHg 90%
    14:00 +1°C° 0 mm 0 mps 749 mmHg 90%
    15:00 0°C° 0 mm 0 mps 749 mmHg 91%
    16:00 -1°C° 0 mm 0 mps 749 mmHg 92%
    17:00 0°C° 0 mm 1 mps 749 mmHg 92%
    18:00 -1°C° 0 mm 1 mps 748 mmHg 93%
    19:00 -1°C° 0 mm 1 mps 748 mmHg 93%
    20:00 -1°C° 0 mm 1 mps 748 mmHg 93%
    21:00 -1°C° 0 mm 1 mps 748 mmHg 93%
    22:00 -1°C° 0 mm 1 mps 748 mmHg 93%
    23:00 -4°C° 0 mm 2 mps 748 mmHg 93%

    Day after tomorrow, 19 December, Wednesday

    Time Temperature Precipitation Wind Pressure Humidity
    00:00 -4°C° 0 mm 2 mps 748 mmHg 93%
    01:00 -4°C° 0 mm 2 mps 748 mmHg 93%
    02:00 -5°C° 0 mm 2 mps 748 mmHg 92%
    03:00 -5°C° 0 mm 2 mps 748 mmHg 92%
    04:00 -5°C° 0 mm 2 mps 747 mmHg 91%
    05:00 -5°C° 0 mm 2 mps 747 mmHg 90%
    06:00 -6°C° 0 mm 2 mps 747 mmHg 90%
    07:00 -6°C° 0 mm 2 mps 747 mmHg 89%
    08:00 -5°C° 0 mm 2 mps 747 mmHg 87%
    09:00 -5°C° 0 mm 3 mps 747 mmHg 85%
    10:00 -4°C° 0 mm 3 mps 747 mmHg 82%
    11:00 -4°C° 0 mm 3 mps 747 mmHg 82%
    12:00 -2°C° 0 mm 3 mps 747 mmHg 81%
    13:00 -1°C° 0 mm 3 mps 746 mmHg 80%
    14:00 -2°C° 0 mm 3 mps 746 mmHg 83%
    15:00 -4°C° 0 mm 3 mps 746 mmHg 86%
    16:00 -5°C° 0 mm 3 mps 746 mmHg 89%
    17:00 -5°C° 0 mm 3 mps 746 mmHg 89%
    18:00 -6°C° 0 mm 3 mps 746 mmHg 89%
    19:00 -6°C° 0 mm 3 mps 746 mmHg 89%
    20:00 -6°C° 0 mm 3 mps 746 mmHg 88%
    21:00 -6°C° 0 mm 3 mps 746 mmHg 88%
    22:00 -5°C° 0 mm 2 mps 746 mmHg 87%
    23:00 -5°C° 0 mm 2 mps 745 mmHg 87%

    20 December, Thursday

    Time Temperature Precipitation Wind Pressure Humidity
    00:00 -5°C° 0 mm 2 mps 745 mmHg 86%
    01:00 -6°C° 0 mm 2 mps 745 mmHg 86%
    02:00 -5°C° 0 mm 2 mps 745 mmHg 85%
    03:00 -5°C° 0 mm 2 mps 745 mmHg 85%
    04:00 -5°C° 0 mm 2 mps 745 mmHg 84%
    05:00 -5°C° 0 mm 2 mps 745 mmHg 84%
    06:00 -5°C° 0 mm 2 mps 745 mmHg 83%
    07:00 -5°C° 0 mm 2 mps 745 mmHg 82%
    08:00 -4°C° 0 mm 2 mps 745 mmHg 82%
    09:00 -3°C° 0 mm 2 mps 745 mmHg 81%
    10:00 -3°C° 0 mm 2 mps 745 mmHg 80%
    11:00 -2°C° 0 mm 2 mps 744 mmHg 80%
    12:00 0°C° 0 mm 1 mps 744 mmHg 80%
    13:00 +1°C° 0 mm 1 mps 744 mmHg 81%
    14:00 +1°C° 0 mm 1 mps 744 mmHg 83%
    15:00 0°C° 0 mm 1 mps 744 mmHg 84%
    16:00 0°C° 0 mm 1 mps 743 mmHg 86%
    17:00 0°C° 0 mm 1 mps 743 mmHg 87%
    18:00 -1°C° 0 mm 1 mps 743 mmHg 87%
    19:00 -1°C° 0 mm 1 mps 743 mmHg 88%
    20:00 -1°C° 0 mm 1 mps 743 mmHg 88%
    21:00 0°C° 0 mm 1 mps 743 mmHg 89%
    22:00 0°C° 0 mm 1 mps 744 mmHg 90%
    23:00 0°C° 0.1 mm 1 mps 743 mmHg 90%

    21 December, Friday

    Time Temperature Precipitation Wind Pressure Humidity
    00:00 0°C° 0.1 mm 1 mps 743 mmHg 91%
    01:00 0°C° 0.1 mm 1 mps 743 mmHg 92%
    02:00 0°C° 0.2 mm 1 mps 743 mmHg 92%
    03:00 0°C° 0.2 mm 1 mps 743 mmHg 93%
    04:00 -1°C° 0.2 mm 1 mps 742 mmHg 94%
    05:00 0°C° 0.3 mm 1 mps 743 mmHg 95%
    06:00 0°C° 0.3 mm 1 mps 743 mmHg 95%
    07:00 0°C° 0.3 mm 1 mps 743 mmHg 96%
    08:00 0°C° 0.3 mm 1 mps 743 mmHg 95%
    09:00 0°C° 0.3 mm 1 mps 743 mmHg 94%
    10:00 -1°C° 0.3 mm 2 mps 743 mmHg 94%
    11:00 -1°C° 0.3 mm 2 mps 743 mmHg 94%
    12:00 -1°C° 0.3 mm 2 mps 743 mmHg 94%
    13:00 +1°C° 0.3 mm 2 mps 743 mmHg 95%
    14:00 +1°C° 0.2 mm 2 mps 743 mmHg 94%
    15:00 +1°C° 0.2 mm 2 mps 743 mmHg 94%
    16:00 +1°C° 0.2 mm 2 mps 743 mmHg 93%
    17:00 -1°C° 0.1 mm 2 mps 743 mmHg 93%
    18:00 -1°C° 0.1 mm 2 mps 743 mmHg 92%
    19:00 -1°C° 0.1 mm 2 mps 743 mmHg 92%
    20:00 -1°C° 0 mm 2 mps 743 mmHg 91%
    21:00 -2°C° 0 mm 2 mps 743 mmHg 90%
    22:00 -3°C° 0 mm 2 mps 743 mmHg 90%
    23:00 -2°C° 0 mm 2 mps 742 mmHg 90%

    22 December, Saturday

    Time Temperature Precipitation Wind Pressure Humidity
    00:00 -2°C° 0 mm 2 mps 742 mmHg 89%
    01:00 -2°C° 0 mm 2 mps 742 mmHg 89%
    02:00 -2°C° 0 mm 2 mps 742 mmHg 89%
    03:00 -2°C° 0 mm 2 mps 742 mmHg 89%
    04:00 -2°C° 0 mm 2 mps 742 mmHg 88%
    05:00 -2°C° 0.1 mm 2 mps 742 mmHg 89%
    06:00 -1°C° 0.1 mm 2 mps 742 mmHg 90%
    07:00 -1°C° 0.1 mm 2 mps 742 mmHg 90%
    08:00 -1°C° 0.3 mm 2 mps 742 mmHg 91%
    09:00 +1°C° 0.3 mm 2 mps 742 mmHg 92%
    10:00 +1°C° 0.3 mm 2 mps 742 mmHg 93%
    11:00 +1°C° 0.3 mm 2 mps 742 mmHg 95%
    12:00 +2°C° 0.3 mm 1 mps 742 mmHg 96%
    13:00 +3°C° 0.3 mm 1 mps 742 mmHg 97%
    14:00 +2°C° 0.2 mm 1 mps 742 mmHg 96%
    15:00 +2°C° 0.2 mm 1 mps 742 mmHg 94%
    16:00 +2°C° 0.2 mm 1 mps 742 mmHg 93%
    17:00 +2°C° 0.1 mm 1 mps 743 mmHg 93%
    18:00 +2°C° 0.1 mm 1 mps 743 mmHg 93%
    19:00 +2°C° 0.1 mm 1 mps 743 mmHg 94%
    20:00 +1°C° 0.1 mm 1 mps 744 mmHg 94%
    21:00 +1°C° 0.1 mm 1 mps 744 mmHg 94%
    22:00 0°C° 0.1 mm 0 mps 744 mmHg 94%
    23:00 0°C° 0.1 mm 0 mps 745 mmHg 94%
    Show more